StationID,Date,MaxTemp,MinTemp,Precipitation,Snowfall,SnowDepth
"USC00505607","1965-07-01",53.96,33.98,127.00,0.00,0.00
"USC00505607","1965-07-02",53.06,37.94,0.00,0.00,0.00
"USC00505607","1965-07-03",60.08,32.00,76.00,0.00,0.00
"USC00505607","1965-07-04",48.92,33.98,81.00,0.00,0.00
"USC00505607","1965-07-05",55.04,30.92,8.00,0.00,0.00
"USC00505607","1965-07-06",68.00,35.06,0.00,0.00,0.00
"USC00505607","1965-07-07",73.04,33.98,0.00,0.00,0.00
"USC00505607","1965-07-08",73.04,35.96,0.00,0.00,0.00
"USC00505607","1965-07-09",69.98,37.94,0.00,0.00,0.00
"USC00505607","1965-07-10",68.00,41.00,0.00,0.00,0.00
"USC00505607","1965-07-11",71.96,53.06,0.00,0.00,0.00
"USC00505607","1965-07-12",68.00,48.92,84.00,0.00,0.00
"USC00505607","1965-07-13",66.92,50.00,0.00,0.00,0.00
"USC00505607","1965-07-14",64.04,50.00,97.00,0.00,0.00
"USC00505607","1965-07-15",60.08,44.06,51.00,0.00,0.00
"USC00505607","1965-07-16",60.08,44.06,28.00,0.00,0.00
"USC00505607","1965-07-17",55.94,35.06,0.00,0.00,0.00
"USC00505607","1965-07-18",59.00,37.94,0.00,0.00,0.00
"USC00505607","1965-07-19",59.00,42.08,25.00,0.00,0.00
"USC00505607","1965-07-20",57.02,42.08,58.00,0.00,0.00
"USC00505607","1965-07-21",55.04,39.92,38.00,0.00,0.00
"USC00505607","1965-07-22",57.02,41.00,89.00,0.00,0.00
"USC00505607","1965-07-23",59.00,35.96,25.00,0.00,0.00
"USC00505607","1965-07-24",50.00,35.96,318.00,0.00,0.00
"USC00505607","1965-07-25",57.92,39.02,160.00,0.00,0.00
"USC00505607","1965-07-26",60.98,41.00,0.00,0.00,0.00
"USC00505607","1965-07-27",69.98,44.06,0.00,0.00,0.00
"USC00505607","1965-07-28",69.98,33.98,0.00,0.00,0.00
"USC00505607","1965-07-29",69.98,44.06,0.00,0.00,0.00
"USC00505607","1965-07-30",75.02,39.92,0.00,0.00,0.00
"USC00505607","1965-07-31",75.02,39.02,64.00,0.00,0.00
"USC00505607","1965-08-01",64.94,33.98,0.00,0.00,0.00
"USC00505607","1965-08-02",64.04,33.08,13.00,0.00,0.00
"USC00505607","1965-08-03",55.04,39.92,71.00,0.00,0.00
"USC00505607","1965-08-04",62.06,35.06,0.00,0.00,0.00
"USC00505607","1965-08-05",66.02,41.00,0.00,0.00,0.00
"USC00505607","1965-08-06",69.08,42.08,0.00,0.00,0.00
"USC00505607","1965-08-07",69.98,50.00,0.00,0.00,0.00
"USC00505607","1965-08-08",71.96,41.00,0.00,0.00,0.00
"USC00505607","1965-08-09",66.02,39.02,23.00,0.00,0.00
"USC00505607","1965-08-10",55.04,41.00,155.00,0.00,0.00
"USC00505607","1965-08-11",53.96,39.92,150.00,0.00,0.00
"USC00505607","1965-08-12",53.06,39.02,46.00,0.00,0.00
"USC00505607","1965-08-13",53.96,37.94,0.00,0.00,0.00
"USC00505607","1965-08-14",51.98,42.08,102.00,0.00,0.00
"USC00505607","1965-08-15",53.06,42.08,0.00,0.00,0.00
"USC00505607","1965-08-16",53.96,39.92,61.00,0.00,0.00
"USC00505607","1965-08-17",57.02,41.00,127.00,0.00,0.00
"USC00505607","1965-08-18",62.96,32.00,0.00,0.00,0.00
"USC00505607","1965-08-19",64.94,30.92,0.00,0.00,0.00
"USC00505607","1965-08-20",64.94,35.06,0.00,0.00,0.00
"USC00505607","1965-08-21",64.94,30.92,0.00,0.00,0.00
"USC00505607","1965-08-22",66.92,32.00,0.00,0.00,0.00
"USC00505607","1965-08-23",62.06,35.96,76.00,0.00,0.00
"USC00505607","1965-08-24",50.00,37.04,51.00,0.00,0.00
"USC00505607","1965-08-25",53.06,33.98,0.00,0.00,0.00
"USC00505607","1965-08-26",51.98,28.94,0.00,0.00,0.00
"USC00505607","1965-08-27",55.04,24.98,0.00,0.00,0.00
"USC00505607","1965-08-28",53.06,28.04,0.00,0.00,0.00
"USC00505607","1965-08-29",53.96,37.04,0.00,0.00,0.00
"USC00505607","1965-08-30",57.92,30.02,0.00,0.00,0.00
"USC00505607","1965-08-31",55.94,23.00,0.00,0.00,0.00
"USC00505607","1965-09-01",51.98,37.94,25.00,0.00,0.00
"USC00505607","1965-09-02",50.00,26.96,18.00,0.00,0.00
"USC00505607","1965-09-03",53.06,33.98,0.00,0.00,0.00
"USC00505607","1965-09-04",51.98,41.00,5.00,0.00,0.00
"USC00505607","1965-09-05",51.08,42.98,102.00,0.00,0.00
"USC00505607","1965-09-06",55.94,48.02,25.00,0.00,0.00
"USC00505607","1965-09-07",50.00,39.02,114.00,0.00,0.00
"USC00505607","1965-09-08",48.92,41.00,3.00,0.00,0.00
"USC00505607","1965-09-09",57.92,44.96,0.00,0.00,0.00
"USC00505607","1965-09-10",64.94,30.92,0.00,0.00,0.00
"USC00505607","1965-09-11",69.08,32.00,0.00,0.00,0.00
"USC00505607","1965-09-12",66.92,39.92,0.00,0.00,0.00
"USC00505607","1965-09-13",64.04,30.02,0.00,0.00,0.00
"USC00505607","1965-09-14",60.98,26.06,0.00,0.00,0.00
"USC00505607","1965-09-15",55.94,32.00,0.00,0.00,0.00
"USC00505607","1965-09-16",55.94,39.02,64.00,0.00,0.00
"USC00505607","1965-09-17",46.04,32.00,43.00,0.00,0.00
"USC00505607","1965-09-18",46.94,39.02,229.00,0.00,0.00
"USC00505607","1965-09-19",46.04,35.96,102.00,0.00,0.00
"USC00505607","1965-09-20",46.94,37.94,241.00,0.00,0.00
"USC00505607","1965-09-21",42.98,32.00,18.00,0.00,0.00
"USC00505607","1965-09-22",53.96,35.96,33.00,0.00,0.00
"USC00505607","1965-09-23",53.06,44.96,69.00,0.00,0.00
"USC00505607","1965-09-24",48.02,35.96,8.00,0.00,0.00
"USC00505607","1965-09-25",53.96,32.00,3.00,0.00,0.00
"USC00505607","1965-09-26",51.98,39.92,3.00,0.00,0.00
"USC00505607","1965-09-27",48.92,33.08,58.00,0.00,0.00
"USC00505607","1965-09-28",39.02,17.96,102.00,84.00,51.00
"USC00505607","1965-09-29",35.06,17.96,0.00,0.00,25.00
"USC00505607","1965-09-30",39.02,26.96,5.00,25.00,51.00
"USC00505607","1965-10-01",39.02,10.94,0.00,13.00,76.00
"USC00505607","1965-10-02",39.92,12.02,0.00,0.00,76.00
"USC00505607","1965-10-03",46.04,28.04,0.00,0.00,76.00
"USC00505607","1965-10-04",39.92,14.00,0.00,0.00,51.00
"USC00505607","1965-10-05",35.96,21.92,0.00,0.00,51.00
"USC00505607","1965-10-06",42.98,28.04,0.00,0.00,51.00
"USC00505607","1965-10-07",39.92,26.96,0.00,0.00,25.00
"USC00505607","1965-10-08",37.94,28.94,13.00,13.00,51.00
"USC00505607","1965-10-09",33.98,21.92,33.00,76.00,127.00
"USC00505607","1965-10-10",39.02,26.06,152.00,102.00,203.00
"USC00505607","1965-10-11",37.04,21.02,8.00,51.00,254.00
"USC00505607","1965-10-12",33.98,21.02,51.00,102.00,356.00
"USC00505607","1965-10-13",33.08,17.06,3.00,38.00,406.00
"USC00505607","1965-10-14",19.04,8.96,0.00,0.00,406.00
"USC00505607","1965-10-15",17.96,-11.02,0.00,0.00,381.00
"USC00505607","1965-10-16",15.08,8.06,0.00,0.00,381.00
"USC00505607","1965-10-17",15.98,6.08,0.00,0.00,356.00
"USC00505607","1965-10-18",15.98,6.08,0.00,0.00,356.00
"USC00505607","1965-10-19",21.92,-11.92,0.00,0.00,356.00
"USC00505607","1965-10-20",17.96,-2.02,0.00,0.00,356.00
"USC00505607","1965-10-21",19.94,6.98,0.00,38.00,406.00
"USC00505607","1965-10-22",26.06,-2.02,0.00,0.00,381.00
"USC00505607","1965-10-23",32.00,15.08,51.00,38.00,432.00
"USC00505607","1965-10-24",35.06,17.06,0.00,25.00,432.00
"USC00505607","1965-10-25",30.02,19.04,122.00,203.00,635.00
"USC00505607","1965-10-26",21.92,12.92,0.00,0.00,635.00
"USC00505607","1965-10-27",30.02,17.06,51.00,127.00,762.00
"USC00505607","1965-10-28",35.06,21.92,89.00,76.00,838.00
"USC00505607","1965-10-29",35.06,24.98,0.00,25.00,864.00
"USC00505607","1965-10-30",28.04,8.06,0.00,0.00,762.00
"USC00505607","1965-10-31",17.96,1.94,0.00,0.00,711.00
"USC00505607","1965-11-01",10.04,3.02,0.00,0.00,660.00
"USC00505607","1965-11-02",5.00,-5.98,0.00,0.00,610.00
"USC00505607","1965-11-03",12.02,-16.96,0.00,0.00,610.00
"USC00505607","1965-11-04",17.96,-9.04,0.00,0.00,610.00
"USC00505607","1965-11-05",15.08,-16.96,0.00,0.00,610.00
"USC00505607","1965-11-06",17.96,-11.02,0.00,0.00,457.00
"USC00505607","1965-11-07",26.96,-5.98,0.00,0.00,457.00
"USC00505607","1965-11-08",17.96,-5.98,0.00,0.00,457.00
"USC00505607","1965-11-09",15.98,-5.98,0.00,0.00,406.00
"USC00505607","1965-11-10",15.98,-7.96,0.00,0.00,406.00
"USC00505607","1965-11-11",19.94,-9.04,0.00,0.00,406.00
"USC00505607","1965-11-12",21.92,8.96,0.00,25.00,432.00
"USC00505607","1965-11-13",17.06,-11.02,0.00,0.00,432.00
"USC00505607","1965-11-14",35.06,-5.08,0.00,0.00,432.00
"USC00505607","1965-11-15",33.98,8.06,84.00,33.00,457.00
"USC00505607","1965-11-16",12.02,-11.02,0.00,0.00,432.00
"USC00505607","1965-11-17",15.98,-20.92,0.00,0.00,432.00
"USC00505607","1965-11-18",15.98,-7.96,0.00,0.00,406.00
"USC00505607","1965-11-19",14.00,-9.94,51.00,191.00,584.00
"USC00505607","1965-11-20",15.08,-14.98,0.00,0.00,559.00
"USC00505607","1965-11-21",6.98,-27.94,0.00,0.00,559.00
"USC00505607","1965-11-22",5.00,-7.96,0.00,0.00,559.00
"USC00505607","1965-11-23",-7.96,-36.04,0.00,0.00,559.00
"USC00505607","1965-11-24",12.92,-25.96,0.00,25.00,584.00
"USC00505607","1965-11-25",17.96,-5.98,76.00,64.00,635.00
"USC00505607","1965-11-26",28.04,-11.92,0.00,25.00,635.00
"USC00505607","1965-11-27",30.02,6.08,0.00,0.00,635.00
"USC00505607","1965-11-28",24.98,-5.98,0.00,0.00,610.00
"USC00505607","1965-11-29",24.08,12.92,0.00,0.00,
"USC00505607","1965-11-30",19.94,10.04,0.00,0.00,
"USC00505607","1965-12-01",17.96,-16.96,0.00,0.00,610.00
"USC00505607","1965-12-02",-0.04,-20.02,0.00,0.00,610.00
"USC00505607","1965-12-03",12.02,-20.02,0.00,0.00,610.00
"USC00505607","1965-12-04",50.00,-22.00,0.00,0.00,610.00
"USC00505607","1965-12-05",-7.96,-14.98,0.00,0.00,610.00
"USC00505607","1965-12-06",19.94,-20.02,0.00,0.00,610.00
"USC00505607","1965-12-07",-9.04,-23.98,0.00,0.00,559.00
"USC00505607","1965-12-08",1.94,-16.06,0.00,0.00,559.00
"USC00505607","1965-12-09",24.98,-9.04,,13.00,584.00
"USC00505607","1965-12-10",24.98,6.98,0.00,0.00,584.00
"USC00505607","1965-12-11",28.94,10.04,0.00,0.00,584.00
"USC00505607","1965-12-12",24.98,-0.04,0.00,0.00,584.00
"USC00505607","1965-12-13",28.04,15.98,0.00,0.00,584.00
"USC00505607","1965-12-14",26.06,17.06,51.00,51.00,635.00
"USC00505607","1965-12-15",28.94,19.04,25.00,38.00,660.00
"USC00505607","1965-12-16",21.92,-9.94,0.00,38.00,686.00
"USC00505607","1965-12-17",10.04,-27.94,0.00,0.00,686.00
"USC00505607","1965-12-18",10.04,-38.92,0.00,0.00,686.00
"USC00505607","1965-12-19",12.02,-4.00,104.00,152.00,838.00
"USC00505607","1965-12-20",14.00,-4.00,0.00,0.00,838.00
"USC00505607","1965-12-21",3.02,-11.02,0.00,0.00,838.00
"USC00505607","1965-12-22",-9.94,-20.02,0.00,0.00,838.00
"USC00505607","1965-12-23",-9.94,-16.06,0.00,0.00,838.00
"USC00505607","1965-12-24",-9.04,-16.06,0.00,0.00,838.00
"USC00505607","1965-12-25",-5.98,-16.06,0.00,0.00,838.00
"USC00505607","1965-12-26",3.02,-23.08,0.00,0.00,838.00
"USC00505607","1965-12-27",8.06,-23.98,0.00,0.00,838.00
"USC00505607","1965-12-28",6.08,-23.98,0.00,0.00,838.00
"USC00505607","1965-12-29",1.04,-25.96,0.00,0.00,838.00
"USC00505607","1965-12-30",-13.00,-36.94,0.00,0.00,838.00
"USC00505607","1965-12-31",-0.04,-29.92,0.00,0.00,838.00
"USC00505607","1966-01-01",-9.94,-20.02,0.00,0.00,838.00
"USC00505607","1966-01-02",-7.96,-20.02,0.00,0.00,838.00
"USC00505607","1966-01-03",1.94,-7.96,0.00,0.00,838.00
"USC00505607","1966-01-04",-0.04,-20.02,0.00,0.00,838.00
"USC00505607","1966-01-05",-11.92,-18.04,0.00,0.00,838.00
"USC00505607","1966-01-06",-11.02,-38.92,0.00,0.00,813.00
"USC00505607","1966-01-07",-0.04,-29.92,0.00,0.00,813.00
"USC00505607","1966-01-08",-9.04,-25.06,0.00,0.00,813.00
"USC00505607","1966-01-09",-0.04,-29.02,0.00,0.00,813.00
"USC00505607","1966-01-10",3.02,-20.02,0.00,0.00,813.00
"USC00505607","1966-01-11",3.02,-25.96,0.00,0.00,813.00
"USC00505607","1966-01-12",-11.02,-36.04,0.00,0.00,813.00
"USC00505607","1966-01-13",-5.08,-32.08,0.00,0.00,813.00
"USC00505607","1966-01-14",-14.08,-31.00,0.00,0.00,813.00
"USC00505607","1966-01-15",5.00,-22.00,0.00,0.00,813.00
"USC00505607","1966-01-16",3.92,-2.02,30.00,51.00,864.00
"USC00505607","1966-01-17",3.02,-22.00,0.00,20.00,864.00
"USC00505607","1966-01-18",-7.06,-32.98,0.00,0.00,864.00
"USC00505607","1966-01-19",1.94,-18.94,150.00,102.00,965.00
"USC00505607","1966-01-20",3.92,-20.02,25.00,46.00,991.00
"USC00505607","1966-01-21",8.96,-29.02,0.00,0.00,991.00
"USC00505607","1966-01-22",-2.92,-41.08,0.00,0.00,991.00
"USC00505607","1966-01-23",15.08,-14.98,0.00,0.00,991.00
"USC00505607","1966-01-24",12.02,-7.06,0.00,0.00,991.00
"USC00505607","1966-01-25",17.06,-9.04,0.00,0.00,965.00
"USC00505607","1966-01-26",12.92,1.94,0.00,0.00,940.00
"USC00505607","1966-01-27",8.96,-20.02,0.00,0.00,914.00
"USC00505607","1966-01-28",-5.98,-25.06,0.00,0.00,914.00
"USC00505607","1966-01-29",-4.00,-31.00,0.00,0.00,914.00
"USC00505607","1966-01-30",17.96,-29.92,0.00,0.00,914.00
"USC00505607","1966-01-31",21.02,-5.08,0.00,0.00,914.00
"USC00505607","1966-02-01",17.96,-0.94,0.00,0.00,914.00
"USC00505607","1966-02-02",15.08,-2.02,0.00,0.00,914.00
"USC00505607","1966-02-03",14.00,6.98,0.00,0.00,914.00
"USC00505607","1966-02-04",15.98,1.94,0.00,0.00,914.00
"USC00505607","1966-02-05",8.06,-25.06,0.00,0.00,940.00
"USC00505607","1966-02-06",15.98,-9.94,84.00,203.00,1143.00
"USC00505607","1966-02-07",10.94,-23.98,0.00,0.00,1143.00
"USC00505607","1966-02-08",12.92,-20.02,0.00,13.00,1143.00
"USC00505607","1966-02-09",26.96,-25.06,0.00,0.00,1143.00
"USC00505607","1966-02-10",26.06,-0.94,3.00,51.00,1194.00
"USC00505607","1966-02-11",21.92,-2.02,8.00,102.00,1295.00
"USC00505607","1966-02-12",24.08,6.98,84.00,305.00,1600.00
"USC00505607","1966-02-13",21.02,5.00,0.00,0.00,1600.00
"USC00505607","1966-02-14",21.92,-16.06,0.00,0.00,1600.00
"USC00505607","1966-02-15",24.08,3.92,,25.00,1626.00
"USC00505607","1966-02-16",24.08,3.92,0.00,0.00,1626.00
"USC00505607","1966-02-17",10.04,-25.06,0.00,0.00,1626.00
"USC00505607","1966-02-18",6.08,-5.08,0.00,0.00,1600.00
"USC00505607","1966-02-19",3.02,-18.04,0.00,0.00,1600.00
"USC00505607","1966-02-20",3.92,-32.08,0.00,0.00,1600.00
"USC00505607","1966-02-21",-2.92,-9.94,0.00,0.00,1600.00
"USC00505607","1966-02-22",-2.02,-13.00,0.00,0.00,1575.00
"USC00505607","1966-02-23",5.00,-31.00,0.00,0.00,1575.00
"USC00505607","1966-02-24",19.94,-7.96,0.00,0.00,1575.00
"USC00505607","1966-02-25",21.92,-4.00,3.00,38.00,1600.00
"USC00505607","1966-02-26",21.92,-7.06,0.00,0.00,1575.00
"USC00505607","1966-02-27",24.08,-14.98,0.00,0.00,1575.00
"USC00505607","1966-02-28",15.08,-16.96,0.00,0.00,1575.00
"USC00505607","1966-03-01",8.06,-27.94,0.00,0.00,1575.00
"USC00505607","1966-03-02",3.02,-25.06,0.00,0.00,1549.00
"USC00505607","1966-03-03",5.00,-4.00,0.00,0.00,1549.00
"USC00505607","1966-03-04",6.98,-5.08,0.00,0.00,1549.00
"USC00505607","1966-03-05",10.04,-0.94,0.00,0.00,1549.00
"USC00505607","1966-03-06",8.06,-13.00,0.00,0.00,1549.00
"USC00505607","1966-03-07",5.00,-4.00,0.00,0.00,1549.00
"USC00505607","1966-03-08",3.02,-14.08,0.00,0.00,1524.00
"USC00505607","1966-03-09",-9.94,-18.94,0.00,0.00,1524.00
"USC00505607","1966-03-10",-11.92,-27.94,0.00,0.00,1524.00
"USC00505607","1966-03-11",8.06,-31.00,0.00,0.00,1524.00
"USC00505607","1966-03-12",21.92,-9.04,0.00,0.00,1524.00
"USC00505607","1966-03-13",19.04,-7.06,0.00,0.00,1524.00
"USC00505607","1966-03-14",15.08,-11.02,0.00,0.00,1524.00
"USC00505607","1966-03-15",15.08,-32.98,0.00,0.00,1524.00
"USC00505607","1966-03-16",14.00,-32.08,0.00,0.00,1524.00
"USC00505607","1966-03-17",8.96,-14.08,0.00,0.00,1524.00
"USC00505607","1966-03-18",10.04,-9.04,0.00,0.00,1524.00
"USC00505607","1966-03-19",8.06,1.04,0.00,0.00,1524.00
"USC00505607","1966-03-20",12.92,-2.02,0.00,0.00,1524.00
"USC00505607","1966-03-21",19.94,-9.04,0.00,0.00,1499.00
"USC00505607","1966-03-22",24.08,15.98,0.00,0.00,1499.00
"USC00505607","1966-03-23",35.06,19.94,5.00,38.00,1524.00
"USC00505607","1966-03-24",28.04,-7.06,0.00,0.00,1524.00
"USC00505607","1966-03-25",35.96,8.06,0.00,0.00,1499.00
"USC00505607","1966-03-26",30.92,10.94,0.00,0.00,1499.00
"USC00505607","1966-03-27",33.08,5.00,0.00,0.00,1499.00
"USC00505607","1966-03-28",42.98,21.02,0.00,0.00,1473.00
"USC00505607","1966-03-29",37.94,21.92,0.00,0.00,1473.00
"USC00505607","1966-03-30",42.98,14.00,0.00,0.00,1448.00
"USC00505607","1966-03-31",35.06,17.06,0.00,0.00,1448.00
"USC00505607","1966-04-01",37.04,6.98,0.00,0.00,1422.00
"USC00505607","1966-04-02",39.02,6.08,0.00,0.00,1397.00
"USC00505607","1966-04-03",39.02,28.94,0.00,0.00,1397.00
"USC00505607","1966-04-04",37.04,28.94,51.00,51.00,1397.00
"USC00505607","1966-04-05",37.94,-9.94,0.00,0.00,1397.00
"USC00505607","1966-04-06",44.06,-2.02,0.00,0.00,1397.00
"USC00505607","1966-04-07",48.02,-0.04,0.00,0.00,1372.00
"USC00505607","1966-04-08",37.94,6.08,0.00,0.00,1372.00
"USC00505607","1966-04-09",33.08,8.06,0.00,0.00,1372.00
"USC00505607","1966-04-10",35.06,10.04,0.00,0.00,1372.00
"USC00505607","1966-04-11",32.00,6.08,0.00,0.00,1372.00
"USC00505607","1966-04-12",28.94,14.00,0.00,0.00,1372.00
"USC00505607","1966-04-13",28.94,14.00,0.00,0.00,1372.00
"USC00505607","1966-04-14",39.92,1.94,0.00,0.00,1372.00
"USC00505607","1966-04-15",39.92,14.00,0.00,0.00,1372.00
"USC00505607","1966-04-16",35.06,17.06,0.00,0.00,1372.00
"USC00505607","1966-04-17",39.92,21.02,25.00,0.00,1372.00
"USC00505607","1966-04-18",37.04,28.04,102.00,76.00,1448.00
"USC00505607","1966-04-19",44.96,24.08,0.00,0.00,1448.00
"USC00505607","1966-04-20",41.00,21.02,51.00,51.00,1499.00
"USC00505607","1966-04-21",30.92,6.98,64.00,152.00,1651.00
"USC00505607","1966-04-22",24.08,6.98,0.00,0.00,1651.00
"USC00505607","1966-04-23",28.04,-11.92,0.00,0.00,1651.00
"USC00505607","1966-04-24",30.02,-14.98,0.00,0.00,1651.00
"USC00505607","1966-04-25",30.02,-16.96,0.00,0.00,1651.00
"USC00505607","1966-04-26",44.96,-11.02,0.00,0.00,1651.00
"USC00505607","1966-04-27",39.02,17.96,0.00,0.00,1626.00
"USC00505607","1966-04-28",48.92,8.96,0.00,0.00,1600.00
"USC00505607","1966-04-29",48.92,14.00,0.00,0.00,1549.00
"USC00505607","1966-04-30",44.06,19.04,0.00,0.00,1549.00
"USC00505607","1966-05-01",42.98,14.00,0.00,0.00,1524.00
"USC00505607","1966-05-02",44.96,24.98,0.00,0.00,1473.00
"USC00505607","1966-05-03",44.96,24.08,0.00,0.00,1473.00
"USC00505607","1966-05-04",42.08,14.00,0.00,0.00,1422.00
"USC00505607","1966-05-05",46.04,12.92,0.00,0.00,1168.00
"USC00505607","1966-05-06",48.02,32.00,0.00,0.00,1016.00
"USC00505607","1966-05-07",46.94,32.00,0.00,0.00,864.00
"USC00505607","1966-05-08",42.08,28.94,0.00,25.00,889.00
"USC00505607","1966-05-09",39.92,23.00,0.00,0.00,762.00
"USC00505607","1966-05-10",42.08,24.08,0.00,0.00,660.00
"USC00505607","1966-05-11",44.96,28.04,0.00,0.00,508.00
"USC00505607","1966-05-12",42.98,26.96,0.00,0.00,457.00
"USC00505607","1966-05-13",37.94,28.94,0.00,0.00,457.00
"USC00505607","1966-05-14",39.92,26.06,0.00,0.00,406.00
"USC00505607","1966-05-15",44.06,32.00,0.00,0.00,305.00
"USC00505607","1966-05-16",42.98,30.02,163.00,102.00,356.00
"USC00505607","1966-05-17",46.04,23.00,0.00,0.00,305.00
"USC00505607","1966-05-18",37.04,17.96,64.00,102.00,356.00
"USC00505607","1966-05-19",35.96,23.00,0.00,0.00,305.00
"USC00505607","1966-05-20",42.98,14.00,0.00,0.00,203.00
"USC00505607","1966-05-21",48.92,21.92,0.00,0.00,152.00
"USC00505607","1966-05-22",39.92,26.96,0.00,0.00,152.00
"USC00505607","1966-05-23",48.92,28.04,140.00,102.00,152.00
"USC00505607","1966-05-24",44.96,28.94,0.00,0.00,102.00
"USC00505607","1966-05-25",48.02,28.04,0.00,0.00,0.00
"USC00505607","1966-05-26",44.06,30.02,51.00,25.00,0.00
"USC00505607","1966-05-27",44.06,30.02,0.00,0.00,0.00
"USC00505607","1966-05-28",51.98,26.06,0.00,0.00,0.00
"USC00505607","1966-05-29",50.00,30.92,0.00,0.00,0.00
"USC00505607","1966-05-30",46.04,30.92,69.00,0.00,0.00
"USC00505607","1966-05-31",48.02,30.92,142.00,102.00,0.00
"USC00505607","1966-06-01",53.96,33.98,0.00,0.00,0.00
"USC00505607","1966-06-02",53.06,35.96,0.00,0.00,0.00
"USC00505607","1966-06-03",59.00,37.94,58.00,0.00,0.00
"USC00505607","1966-06-04",62.96,35.96,0.00,0.00,0.00
"USC00505607","1966-06-05",66.92,28.94,0.00,0.00,0.00
"USC00505607","1966-06-06",69.08,30.92,0.00,0.00,0.00
"USC00505607","1966-06-07",73.04,30.92,0.00,0.00,0.00
"USC00505607","1966-06-08",66.92,28.94,0.00,0.00,0.00
"USC00505607","1966-06-09",69.98,32.00,0.00,0.00,0.00
"USC00505607","1966-06-10",71.96,30.02,0.00,0.00,0.00
"USC00505607","1966-06-11",64.04,35.06,20.00,0.00,0.00
"USC00505607","1966-06-12",50.00,39.92,0.00,0.00,0.00
"USC00505607","1966-06-13",50.00,33.98,89.00,0.00,0.00
"USC00505607","1966-06-14",59.00,28.04,0.00,0.00,0.00
"USC00505607","1966-06-15",64.04,30.02,0.00,0.00,0.00
"USC00505607","1966-06-16",64.04,35.06,0.00,0.00,0.00
"USC00505607","1966-06-17",62.06,37.94,295.00,0.00,0.00
"USC00505607","1966-06-18",50.00,37.94,140.00,0.00,0.00
"USC00505607","1966-06-19",57.92,37.94,69.00,0.00,0.00
"USC00505607","1966-06-20",60.98,37.94,0.00,0.00,0.00
"USC00505607","1966-06-21",60.98,37.04,0.00,0.00,0.00
"USC00505607","1966-06-22",57.92,35.06,0.00,0.00,0.00
"USC00505607","1966-06-23",62.96,35.96,51.00,0.00,0.00
"USC00505607","1966-06-24",64.94,30.92,0.00,0.00,0.00
"USC00505607","1966-06-25",64.94,30.02,0.00,0.00,0.00
"USC00505607","1966-06-26",60.08,33.08,38.00,0.00,0.00
"USC00505607","1966-06-27",59.00,39.02,38.00,0.00,0.00
"USC00505607","1966-06-28",66.02,35.06,0.00,0.00,0.00
"USC00505607","1966-06-29",60.98,44.96,0.00,0.00,0.00
"USC00505607","1966-06-30",69.98,33.08,0.00,0.00,0.00
"USC00505607","1966-07-01",66.02,35.06,13.00,0.00,0.00
"USC00505607","1966-07-02",57.92,35.96,0.00,0.00,0.00
"USC00505607","1966-07-03",53.06,39.02,13.00,0.00,0.00
"USC00505607","1966-07-04",57.92,30.02,25.00,0.00,0.00
"USC00505607","1966-07-05",62.96,46.94,0.00,0.00,0.00
"USC00505607","1966-07-06",64.04,44.06,0.00,0.00,0.00
"USC00505607","1966-07-07",57.92,41.00,8.00,0.00,0.00
"USC00505607","1966-07-08",57.92,30.92,15.00,0.00,0.00
"USC00505607","1966-07-09",57.92,39.02,127.00,0.00,0.00
"USC00505607","1966-07-10",64.94,33.98,0.00,0.00,0.00
"USC00505607","1966-07-11",62.06,46.94,8.00,0.00,0.00
"USC00505607","1966-07-12",60.98,46.94,0.00,0.00,0.00
"USC00505607","1966-07-13",64.94,33.08,0.00,0.00,0.00
"USC00505607","1966-07-14",73.94,33.98,0.00,0.00,0.00
"USC00505607","1966-07-15",69.98,37.94,0.00,0.00,0.00
"USC00505607","1966-07-16",66.92,46.94,0.00,0.00,0.00
"USC00505607","1966-07-17",78.08,37.04,0.00,0.00,0.00
"USC00505607","1966-07-18",77.00,51.98,84.00,0.00,0.00
"USC00505607","1966-07-19",62.96,42.98,0.00,0.00,0.00
"USC00505607","1966-07-20",71.96,42.98,0.00,0.00,0.00
"USC00505607","1966-07-21",71.06,33.98,0.00,0.00,0.00
"USC00505607","1966-07-22",77.00,35.06,0.00,0.00,0.00
"USC00505607","1966-07-23",75.02,48.02,0.00,0.00,0.00
"USC00505607","1966-07-24",75.92,48.02,0.00,0.00,0.00
"USC00505607","1966-07-25",73.04,42.08,0.00,0.00,0.00
"USC00505607","1966-07-26",69.08,46.94,46.00,0.00,0.00
"USC00505607","1966-07-27",55.04,46.94,122.00,0.00,0.00
"USC00505607","1966-07-28",57.02,44.06,0.00,0.00,0.00
"USC00505607","1966-07-29",60.08,37.94,0.00,0.00,0.00
"USC00505607","1966-07-30",62.06,42.98,58.00,0.00,0.00
"USC00505607","1966-07-31",62.96,33.08,0.00,0.00,0.00
"USC00505607","1966-08-01",60.08,42.98,20.00,0.00,0.00
"USC00505607","1966-08-02",55.94,44.06,76.00,0.00,0.00
"USC00505607","1966-08-03",57.02,42.98,51.00,0.00,0.00
"USC00505607","1966-08-04",55.94,44.96,0.00,0.00,0.00
"USC00505607","1966-08-05",69.98,32.00,0.00,0.00,0.00
"USC00505607","1966-08-06",71.06,32.00,0.00,0.00,0.00
"USC00505607","1966-08-07",73.04,33.08,0.00,0.00,0.00
"USC00505607","1966-08-08",71.06,35.96,61.00,0.00,0.00
"USC00505607","1966-08-09",60.98,32.00,15.00,0.00,0.00
"USC00505607","1966-08-10",59.00,41.00,102.00,0.00,0.00
"USC00505607","1966-08-11",57.02,33.08,51.00,0.00,0.00
"USC00505607","1966-08-12",59.00,33.98,0.00,0.00,0.00
"USC00505607","1966-08-13",68.00,30.02,0.00,0.00,0.00
"USC00505607","1966-08-14",62.96,37.94,0.00,0.00,0.00
"USC00505607","1966-08-15",59.00,30.92,0.00,0.00,0.00
"USC00505607","1966-08-16",53.06,35.06,142.00,0.00,0.00
"USC00505607","1966-08-17",53.96,33.98,173.00,0.00,0.00
"USC00505607","1966-08-18",51.98,39.02,0.00,0.00,0.00
"USC00505607","1966-08-19",55.94,41.00,5.00,0.00,0.00
"USC00505607","1966-08-20",57.92,30.92,74.00,0.00,0.00
"USC00505607","1966-08-21",48.02,37.94,0.00,0.00,0.00
"USC00505607","1966-08-22",51.98,39.92,25.00,0.00,0.00
"USC00505607","1966-08-23",55.04,41.00,10.00,0.00,0.00
"USC00505607","1966-08-24",53.06,39.02,38.00,0.00,0.00
"USC00505607","1966-08-25",53.06,35.06,0.00,0.00,0.00